SBI6432 UNKL-UIII

Flight info

Callsign SBI6432
Flight time N/A
Altitude 34996
Route ATREG2F ATREG R497 UPLIV DCT BD BD4B
Aircraft A320/M-SDE3FGHIRWY/LB1

Departure

Time 2026-04-30 13:28
Airport Krasnoyarsk International Airport (UNKL)

Arrival

Time N/A
Airport Irkutsk International Airport (UIII)
Time Latitude Longitude Altitude Speed Heading
2026-04-30 13:00 56.17933 92.48621 957 ft 0 kts 24°
2026-04-30 13:18 56.17925 92.48616 954 ft 3 kts 24°
2026-04-30 13:18 56.17882 92.48586 955 ft 3 kts 14°
2026-04-30 13:18 56.17869 92.48580 955 ft 3 kts
2026-04-30 13:19 56.17849 92.48577 955 ft 3 kts 353°
2026-04-30 13:19 56.17839 92.48580 955 ft 1 kts 348°
2026-04-30 13:19 56.17837 92.48581 954 ft 0 kts 348°
2026-04-30 13:22 56.17842 92.48578 954 ft 4 kts 341°
2026-04-30 13:22 56.17797 92.48423 955 ft 12 kts 202°
2026-04-30 13:23 56.17727 92.48455 954 ft 12 kts 116°
2026-04-30 13:23 56.17665 92.48717 954 ft 10 kts 113°
2026-04-30 13:24 56.17607 92.48961 955 ft 14 kts 113°
2026-04-30 13:24 56.17520 92.49333 953 ft 16 kts 113°
2026-04-30 13:25 56.17429 92.49717 957 ft 17 kts 113°
2026-04-30 13:25 56.17328 92.50145 953 ft 19 kts 114°
2026-04-30 13:26 56.17137 92.50348 952 ft 10 kts 202°
2026-04-30 13:26 56.17094 92.50173 952 ft 0 kts 292°
2026-04-30 13:28 56.17208 92.49692 954 ft 79 kts 293°
2026-04-30 13:28 56.17950 92.46589 1084 ft 174 kts 292°
2026-04-30 13:28 56.18462 92.44537 1643 ft 186 kts 293°
2026-04-30 13:29 56.19536 92.40068 2834 ft 204 kts 293°
2026-04-30 13:29 56.20706 92.35345 3646 ft 240 kts 291°
2026-04-30 13:30 56.20503 92.26250 6306 ft 260 kts 229°
2026-04-30 13:31 56.17209 92.23870 8070 ft 281 kts 178°
2026-04-30 13:31 56.13057 92.31335 10419 ft 310 kts 118°
2026-04-30 13:32 56.10652 92.38296 11475 ft 341 kts 123°
2026-04-30 13:32 56.08014 92.45457 13006 ft 351 kts 122°
2026-04-30 13:33 56.05348 92.52928 14475 ft 361 kts 121°
2026-04-30 13:33 56.02665 92.60632 15780 ft 370 kts 120°
2026-04-30 13:34 56.01300 92.64564 16422 ft 374 kts 120°
2026-04-30 13:34 55.97100 92.76611 18293 ft 388 kts 120°
2026-04-30 13:35 55.95657 92.80720 18877 ft 392 kts 120°
2026-04-30 13:35 55.92724 92.89010 19480 ft 398 kts 120°
2026-04-30 13:36 55.89769 92.97358 20585 ft 404 kts 120°
2026-04-30 13:36 55.88265 93.01618 21122 ft 408 kts 120°
2026-04-30 13:36 55.85211 93.10264 22157 ft 416 kts 120°
2026-04-30 13:37 55.83654 93.14637 22677 ft 420 kts 120°
2026-04-30 13:37 55.80485 93.23482 23674 ft 428 kts 120°
2026-04-30 13:38 55.77272 93.32420 24560 ft 435 kts 120°
2026-04-30 13:38 55.75640 93.36958 25002 ft 437 kts 120°
2026-04-30 13:38 55.72437 93.46211 25873 ft 442 kts 117°
2026-04-30 13:39 55.69452 93.55793 26710 ft 446 kts 115°
2026-04-30 13:39 55.66495 93.65448 27516 ft 452 kts 116°
2026-04-30 13:40 55.64968 93.70323 27917 ft 454 kts 116°
2026-04-30 13:40 55.63409 93.75207 28314 ft 457 kts 117°
2026-04-30 13:40 55.61825 93.80101 28715 ft 460 kts 117°
2026-04-30 13:40 55.60226 93.85012 29101 ft 462 kts 117°
2026-04-30 13:41 55.58622 93.89953 29472 ft 464 kts 117°
2026-04-30 13:41 55.57016 93.94921 29845 ft 467 kts 117°
2026-04-30 13:41 55.55404 93.99918 30214 ft 469 kts 117°
2026-04-30 13:41 55.53788 94.04938 30554 ft 471 kts 117°
2026-04-30 13:42 55.52163 94.09975 30875 ft 474 kts 117°
2026-04-30 13:42 55.50522 94.15038 31193 ft 476 kts 117°
2026-04-30 13:42 55.47235 94.25117 31873 ft 478 kts 117°
2026-04-30 13:43 55.45582 94.30173 32322 ft 476 kts 117°
2026-04-30 13:43 55.43928 94.35231 32779 ft 475 kts 117°
2026-04-30 13:43 55.42277 94.40261 33229 ft 474 kts 117°
2026-04-30 13:43 55.40627 94.45261 33655 ft 473 kts 117°
2026-04-30 13:44 55.38973 94.50255 34104 ft 471 kts 117°
2026-04-30 13:44 55.37330 94.55237 34479 ft 470 kts 117°
2026-04-30 13:44 55.35692 94.60204 34814 ft 470 kts 117°
2026-04-30 13:44 55.34048 94.65165 35133 ft 469 kts 117°
2026-04-30 13:45 55.30774 94.74973 35279 ft 455 kts 117°
2026-04-30 13:45 55.29184 94.79705 35275 ft 447 kts 117°
2026-04-30 13:46 55.26081 94.89000 35273 ft 443 kts 116°
2026-04-30 13:46 55.23300 94.98577 35273 ft 440 kts 111°
2026-04-30 13:47 55.20730 95.08303 35280 ft 440 kts 111°
2026-04-30 13:47 55.18114 95.17978 35268 ft 440 kts 112°
2026-04-30 13:48 55.15420 95.27571 35272 ft 440 kts 113°
2026-04-30 13:48 55.12691 95.37125 35284 ft 439 kts 113°
2026-04-30 13:49 55.09994 95.46617 35276 ft 439 kts 112°
2026-04-30 13:49 55.07288 95.56159 35286 ft 439 kts 112°
2026-04-30 13:50 55.04581 95.65690 35286 ft 438 kts 112°
2026-04-30 13:50 55.00487 95.79942 35290 ft 438 kts 113°
2026-04-30 13:51 54.97743 95.89416 35294 ft 438 kts 113°
2026-04-30 13:51 54.95027 95.98814 35296 ft 438 kts 113°
2026-04-30 13:52 54.92288 96.08258 35292 ft 437 kts 113°
2026-04-30 13:52 54.89535 96.17680 35294 ft 437 kts 113°
2026-04-30 13:53 54.86786 96.27099 35292 ft 437 kts 113°
2026-04-30 13:53 54.84014 96.36480 35290 ft 437 kts 113°
2026-04-30 13:54 54.81253 96.45779 35293 ft 437 kts 114°
2026-04-30 13:54 54.78478 96.55143 35294 ft 436 kts 113°
2026-04-30 13:55 54.75694 96.64492 35297 ft 436 kts 114°
2026-04-30 13:55 54.72875 96.73797 35308 ft 437 kts 115°
2026-04-30 13:56 54.69986 96.83030 35306 ft 437 kts 115°
2026-04-30 13:56 54.67070 96.92244 35306 ft 437 kts 115°
2026-04-30 13:57 54.64182 97.01400 35311 ft 437 kts 115°
2026-04-30 13:57 54.61286 97.10621 35310 ft 437 kts 115°
2026-04-30 13:58 54.56930 97.24419 35307 ft 437 kts 115°
2026-04-30 13:59 54.54013 97.33594 35307 ft 437 kts 115°
2026-04-30 13:59 54.51099 97.42698 35303 ft 437 kts 115°
2026-04-30 14:00 54.48165 97.51845 35300 ft 437 kts 115°
2026-04-30 14:00 54.43744 97.65532 35297 ft 437 kts 116°
2026-04-30 14:01 54.40792 97.74644 35301 ft 437 kts 116°
2026-04-30 14:01 54.37837 97.83749 35305 ft 437 kts 116°
2026-04-30 14:02 54.34868 97.92836 35305 ft 437 kts 116°
2026-04-30 14:02 54.31921 98.01864 35311 ft 437 kts 116°
2026-04-30 14:03 54.28969 98.10942 35312 ft 437 kts 116°
2026-04-30 14:03 54.25996 98.20009 35309 ft 437 kts 116°
2026-04-30 14:04 54.23010 98.29064 35312 ft 437 kts 116°
2026-04-30 14:04 54.20024 98.38119 35320 ft 437 kts 116°
2026-04-30 14:05 54.17032 98.47147 35319 ft 437 kts 116°
2026-04-30 14:05 54.14047 98.56104 35315 ft 437 kts 116°
2026-04-30 14:06 54.09540 98.69619 35315 ft 437 kts 116°
2026-04-30 14:07 54.04999 98.83093 35308 ft 437 kts 117°
2026-04-30 14:08 54.00453 98.96552 35308 ft 437 kts 117°
2026-04-30 14:08 53.95892 99.09976 35309 ft 437 kts 117°
2026-04-30 14:09 53.92856 99.18840 35315 ft 437 kts 117°
2026-04-30 14:10 53.88285 99.32204 35313 ft 437 kts 117°
2026-04-30 14:10 53.85223 99.41096 35323 ft 437 kts 117°
2026-04-30 14:11 53.82156 99.49968 35323 ft 436 kts 117°
2026-04-30 14:11 53.79084 99.58825 35324 ft 437 kts 117°
2026-04-30 14:12 53.76024 99.67607 35323 ft 437 kts 117°
2026-04-30 14:12 53.72933 99.76443 35319 ft 437 kts 118°
2026-04-30 14:13 53.69838 99.85273 35319 ft 437 kts 118°
2026-04-30 14:13 53.66735 99.94076 35319 ft 437 kts 118°
2026-04-30 14:14 53.63623 100.02884 35321 ft 437 kts 118°
2026-04-30 14:14 53.60510 100.11676 35322 ft 437 kts 118°
2026-04-30 14:15 53.57410 100.20406 35327 ft 437 kts 118°
2026-04-30 14:15 53.54275 100.29173 35310 ft 437 kts 118°
2026-04-30 14:16 53.51132 100.37925 35316 ft 437 kts 118°
2026-04-30 14:16 53.47993 100.46670 35319 ft 437 kts 118°
2026-04-30 14:17 53.44846 100.55408 35313 ft 437 kts 118°
2026-04-30 14:17 53.41707 100.64072 35312 ft 437 kts 118°
2026-04-30 14:18 53.38544 100.72773 35310 ft 437 kts 118°
2026-04-30 14:18 53.33788 100.85804 35307 ft 437 kts 119°
2026-04-30 14:19 53.29014 100.98809 35306 ft 438 kts 119°
2026-04-30 14:20 53.25830 101.07468 35309 ft 437 kts 119°
2026-04-30 14:20 53.21053 101.20394 35308 ft 438 kts 119°
2026-04-30 14:21 53.17840 101.29030 35309 ft 438 kts 119°
2026-04-30 14:22 53.13023 101.41961 35311 ft 438 kts 119°
2026-04-30 14:22 53.08205 101.54791 35318 ft 438 kts 120°
2026-04-30 14:23 53.01745 101.71926 35311 ft 439 kts 120°
2026-04-30 14:24 52.98428 101.80677 34292 ft 456 kts 120°
2026-04-30 14:24 52.96735 101.85128 33576 ft 457 kts 120°
2026-04-30 14:25 52.93354 101.93976 32473 ft 452 kts 120°
2026-04-30 14:25 52.90000 102.02745 31325 ft 449 kts 120°
2026-04-30 14:26 52.86694 102.11371 30297 ft 445 kts 120°
2026-04-30 14:26 52.85035 102.15677 29755 ft 441 kts 120°
2026-04-30 14:26 52.81775 102.24117 28795 ft 431 kts 121°
2026-04-30 14:27 52.80166 102.28265 28325 ft 426 kts 121°
2026-04-30 14:27 52.78577 102.32358 27856 ft 422 kts 121°
2026-04-30 14:27 52.77000 102.36422 27367 ft 418 kts 121°
2026-04-30 14:28 52.73883 102.44455 26395 ft 413 kts 121°
2026-04-30 14:28 52.72337 102.48422 25903 ft 410 kts 121°
2026-04-30 14:28 52.70818 102.52312 25406 ft 409 kts 121°
2026-04-30 14:28 52.69281 102.56241 24887 ft 407 kts 121°
2026-04-30 14:29 52.66210 102.64075 23828 ft 406 kts 121°
2026-04-30 14:29 52.63666 102.70545 22918 ft 403 kts 122°
2026-04-30 14:30 52.58635 102.83292 21326 ft 393 kts 122°
2026-04-30 14:31 52.55691 102.90725 20381 ft 389 kts 122°
2026-04-30 14:31 52.52763 102.98085 19591 ft 382 kts 122°
2026-04-30 14:31 52.51314 103.01726 19184 ft 379 kts 122°
2026-04-30 14:32 52.48443 103.08928 18357 ft 374 kts 122°
2026-04-30 14:32 52.47023 103.12479 17913 ft 372 kts 122°
2026-04-30 14:32 52.45604 103.16014 17452 ft 369 kts 122°
2026-04-30 14:33 52.44198 103.19515 17037 ft 366 kts 122°
2026-04-30 14:33 52.41449 103.26289 16705 ft 347 kts 122°
2026-04-30 14:33 52.40122 103.29546 16506 ft 340 kts 122°
2026-04-30 14:34 52.38833 103.32708 16194 ft 337 kts 122°
2026-04-30 14:34 52.37536 103.35890 15866 ft 335 kts 122°
2026-04-30 14:34 52.36251 103.39057 15547 ft 333 kts 120°
2026-04-30 14:34 52.35254 103.42436 15233 ft 329 kts 109°
2026-04-30 14:35 52.33896 103.48262 14715 ft 326 kts 108°
2026-04-30 14:35 52.32915 103.52872 14312 ft 323 kts 106°
2026-04-30 14:35 52.32224 103.56353 13994 ft 321 kts 105°
2026-04-30 14:36 52.31550 103.59818 13640 ft 319 kts 105°
2026-04-30 14:36 52.30877 103.63265 13291 ft 318 kts 105°
2026-04-30 14:36 52.30198 103.66693 12974 ft 317 kts 105°
2026-04-30 14:36 52.29512 103.70119 12710 ft 317 kts 105°
2026-04-30 14:37 52.28827 103.73529 12446 ft 316 kts 105°
2026-04-30 14:37 52.28141 103.76927 12181 ft 315 kts 105°
2026-04-30 14:37 52.27454 103.80317 11917 ft 314 kts 105°
2026-04-30 14:37 52.26777 103.83654 11668 ft 313 kts 105°
2026-04-30 14:38 52.26092 103.87022 11412 ft 312 kts 105°
2026-04-30 14:38 52.25446 103.90196 11168 ft 312 kts 105°
2026-04-30 14:38 52.24762 103.93549 10914 ft 311 kts 105°
2026-04-30 14:38 52.24077 103.96891 10670 ft 310 kts 105°
2026-04-30 14:39 52.23393 104.00228 10414 ft 310 kts 105°
2026-04-30 14:39 52.22712 104.03561 10177 ft 309 kts 105°
2026-04-30 14:39 52.22024 104.06881 10050 ft 309 kts 106°
2026-04-30 14:40 52.20567 104.13467 9773 ft 308 kts 107°
2026-04-30 14:40 52.19826 104.16749 9645 ft 308 kts 107°
2026-04-30 14:40 52.19090 104.20014 9494 ft 307 kts 107°
2026-04-30 14:40 52.18355 104.23279 9371 ft 307 kts 107°
2026-04-30 14:41 52.17624 104.26541 9244 ft 306 kts 107°
2026-04-30 14:41 52.16904 104.29745 9099 ft 305 kts 107°
2026-04-30 14:41 52.16177 104.32982 8973 ft 304 kts 108°
2026-04-30 14:41 52.15450 104.36215 8847 ft 304 kts 108°
2026-04-30 14:42 52.14727 104.39443 8709 ft 303 kts 108°
2026-04-30 14:42 52.14005 104.42663 8573 ft 303 kts 108°
2026-04-30 14:42 52.13276 104.45904 8104 ft 305 kts 108°
2026-04-30 14:42 52.12549 104.49117 7750 ft 301 kts 108°
2026-04-30 14:43 52.11824 104.52310 7339 ft 300 kts 108°
2026-04-30 14:43 52.11107 104.55472 6829 ft 296 kts 108°
2026-04-30 14:43 52.10686 104.58680 6149 ft 287 kts 86°
2026-04-30 14:43 52.11097 104.61769 5455 ft 277 kts 60°
2026-04-30 14:44 52.11789 104.63474 5069 ft 268 kts 43°
2026-04-30 14:44 52.13698 104.65528 4791 ft 233 kts 14°
2026-04-30 14:44 52.15204 104.65943 4643 ft 209 kts 359°
2026-04-30 14:44 52.16610 104.66052 4525 ft 196 kts 360°
2026-04-30 14:45 52.17937 104.66162 4427 ft 187 kts 360°
2026-04-30 14:45 52.19180 104.65851 4341 ft 180 kts 331°
2026-04-30 14:45 52.20067 104.64475 4307 ft 179 kts 297°
2026-04-30 14:45 52.20381 104.63210 4234 ft 183 kts 293°
2026-04-30 14:46 52.20861 104.61322 4268 ft 181 kts 296°
2026-04-30 14:46 52.21368 104.59433 4293 ft 182 kts 296°
2026-04-30 14:46 52.22044 104.56921 4040 ft 182 kts 295°
2026-04-30 14:46 52.22384 104.55652 3851 ft 179 kts 295°
2026-04-30 14:47 52.23032 104.53236 3506 ft 170 kts 296°
2026-04-30 14:47 52.23345 104.52068 3345 ft 163 kts 296°
2026-04-30 14:47 52.23768 104.50485 3122 ft 147 kts 296°
2026-04-30 14:47 52.24161 104.49018 2884 ft 136 kts 295°
2026-04-30 14:48 52.24528 104.47649 2670 ft 130 kts 295°
2026-04-30 14:48 52.24887 104.46308 2458 ft 129 kts 295°
2026-04-30 14:48 52.25247 104.44972 2259 ft 129 kts 295°
2026-04-30 14:48 52.25618 104.43645 2048 ft 129 kts 292°
2026-04-30 14:49 52.25961 104.42289 1843 ft 129 kts 295°
2026-04-30 14:49 52.26318 104.40949 1689 ft 127 kts 293°
2026-04-30 14:49 52.26638 104.39746 1669 ft 100 kts 292°
2026-04-30 14:49 52.26860 104.38915 1647 ft 63 kts 293°